Regional Weather Roundup
Issued by NWS Upton, NY

Current Version | Previous Version | Graphics & Text | Print | Product List | Glossary Off
Versions: 1 2 3 4 5 6 7 8 9 10 11 12 13 14 15 16 17 18 19 20 21 22 23 24 25 26 27 28 29 30 31 32 33 34 35 36 37 38 39 40 41 42 43 44 45 46 47 48 49 50

000
ASUS41 KOKX 272105
RWROKX

REGIONAL WEATHER ROUNDUP
NATIONAL WEATHER SERVICE NEW YORK NY
500 PM EDT SUN JUL 27 2014

NOTE: "FAIR" INDICATES FEW OR NO CLOUDS BELOW 12,000 FEET WITH NO
SIGNIFICANT WEATHER AND/OR OBSTRUCTIONS TO VISIBILITY.

NYZ071-072-176-178-NJZ106-104-272200-
NEW YORK CITY METRO AREA


CITY           SKY/WX    TMP DP  RH WIND       PRES   REMARKS
CENTRAL PARK   MOSUNNY   83  67  58 VRB5      29.72F
LAGUARDIA APRT PTSUNNY   85  69  58 S15       29.69F
KENNEDY INTL   MOSUNNY   83  71  67 S12       29.71F
NEWARK/LIBERTY PTSUNNY   89  65  44 SW9       29.69F HX  91
BRNX BOT. GARD   N/A     88  64  45 SW8       29.70F
TETERBORO      MOSUNNY   89  63  41 W9        29.67F HX  90
$$

NYZ177-179-078>081-272200-
LONG ISLAND NEW YORK

CITY           SKY/WX    TMP DP  RH WIND       PRES   REMARKS
FARMINGDALE    SUNNY     80  71  74 SW18      29.71F
ISLIP          MOSUNNY   82  71  69 S13       29.70F
SHIRLEY        MOSUNNY   78  71  79 S14G20    29.73F
WESTHAMPTON    SUNNY     78  70  76 SW15G23   29.74F
MONTAUK POINT    N/A     76  70  82 S9G18     29.74F
$$

NYZ052-065-067-272200-
HUDSON VALLEY

CITY           SKY/WX    TMP DP  RH WIND       PRES   REMARKS
WHITE PLAINS   PTSUNNY   82  71  69 S7G18     29.69F
NEWBURGH       NOT AVBL
MONTGOMERY     SUNNY     86  62  44 W7        29.67F
POUGHKEEPSIE   MOSUNNY   85  68  56 SW9       29.66F
ALBANY         PTSUNNY   74  67  78 VRB3      29.66S
$$

NJZ001-105-106-008-010-013-015-019>022-104-272200-
NEW JERSEY

CITY           SKY/WX    TMP DP  RH WIND       PRES   REMARKS
NEWARK/LIBERTY PTSUNNY   89  65  44 SW9       29.69F HX  91
TETERBORO      MOSUNNY   89  63  41 W9        29.67F HX  90
CALDWELL       SUNNY     87  64  46 VRB7      29.70F
MORRISTOWN     NOT AVBL
SOMERVILLE     MOSUNNY   87  64  46 VRB5      29.68F
LINDEN         FAIR      89  63  40 W9        29.71S HX  90
SUSSEX         MOSUNNY   87  65  47 VRB7      29.70F
ANDOVER          N/A     85  63  47 SW8       29.71F
TRENTON        MOSUNNY   88  66  48 SW8       29.70F HX  90
MILLVILLE      PTSUNNY   83  71  67 S8G17     29.75F
ATLANTIC CITY  PTSUNNY   83  70  64 SW14      29.74F
WRIGHTSTOWN    MOSUNNY   88  70  54 SW9       29.69F HX  93
TOMS RIVER     MOSUNNY   90  68  48 SW9       29.71F HX  93
BELMAR         SUNNY     88  68  51 W7        29.71F HX  91
$$

PAZ047>061-062-071-272200-
EASTERN PENNSYLVANIA

CITY           SKY/WX    TMP DP  RH WIND       PRES   REMARKS
PHILADELPHIA   PTSUNNY   88  69  53 S14       29.71F HX  92
ALLENTOWN      MOSUNNY   87  64  46 W9G18     29.71F
SCRANTON       MOSUNNY   87  59  38 SW8G17    29.70F
$$

CTZ002-004>006-009-010-012-RIZ004-006-007-MAZ004-011-015-272200-
SOUTHERN NEW ENGLAND
 IN CT

CITY           SKY/WX    TMP DP  RH WIND       PRES   REMARKS
BRADLEY INTL   MOSUNNY   84  69  60 S12       29.66F
HARTFORD       MOSUNNY   83  68  60 SW9       29.67F
DANBURY        SUNNY     82  67  60 S9        29.71F
WTRBRY/OXFORD  NOT AVBL
BRIDGEPORT     MOSUNNY   83  72  69 S14       29.69F
MERIDEN        MOSUNNY   82  69  64 S8        29.69S
NEW HAVEN      MOSUNNY   82  72  71 SW9       29.70F
CHESTER        FAIR      79  72  78 SW8G16    29.72F
GROTON         MOSUNNY   75  71  87 S13       29.70F
WILLIMANTIC    CLOUDY    79  69  71 S12       29.70F

 IN RI

CITY           SKY/WX    TMP DP  RH WIND       PRES   REMARKS
PROVIDENCE     CLOUDY    75  70  84 S12       29.73F
BLOCK ISLAND   CLOUDY    73  66  78 S14G20    29.74F
WESTERLY       SUNNY     77  69  76 SW14      29.72F

 IN MA

CITY           SKY/WX    TMP DP  RH WIND       PRES   REMARKS
BOSTON         PTSUNNY   73  70  88 S15       29.70F
WORCESTER      MOSUNNY   74  68  81 SW10      29.73S
WESTFIELD      MOSUNNY   83  69  62 S12       29.65F
PROVINCETOWN   PTSUNNY   73  68  83 S13G21    29.74F
NANTUCKET      MOSUNNY   72  66  81 S10       29.77F
$$

ANZ330-335-338-340-345-350-353-355-272200-
COASTAL MARINE OBSERVATIONS


STATION/POSITION TIME  SKY/WX   TEMP    WIND        PRES    VSBY  WAVE
                                AIR SEA DIR/SP/G                  HT/PER
                 (UTC)          (F)     (DEG/KT/KT) (MB)    (MI)  (FT/S)
NY HARB ENTRANCE NOT AVBL
4S FIRE IS       NOT AVBL
23SW MTP         2100            74 72              1006.0          5/ 6
HUDSON CANYON    2100            76 74  230/ 14/ 17 1007.4          4/ 6
EXECUTION ROCKS  2100            81 72  200/ 12/ 14   N/A
WESTERN LI SOUND 2100            80     190/ 10/ 14   N/A           1
CENTRAL LI SOUND 2000            76 72  200/ 14/ 16   N/A           1/ 3
EASTERN LI SOUND 2000            72 68  200/ 10/ 14   N/A
ROBBINS REEF     2100            81     170/ 11/ 14   N/A
$$


>>>>>>>>>>>>>>>>>>>>>>>>>>>> KEY <<<<<<<<<<<<<<<<<<<<<<<<<<<
>                                                          <
>     SKY/WX - SKY CONDITION/PRESENT WEATHER               <
>     TMP    - TEMPERATURE IN FAHRENHEIT                   <
>     DP     - DEWPOINT IN FAHRENHEIT                      <
>     RH     - RELATIVE HUMIDITY IN PERCENT                <
>     WIND   - DIRECTION AND SPEED IN MPH                  <
>     PRES   - MEAN SEA LEVEL PRESSURE IN INCHES OF HG     <
>     WCI    - WIND CHILL INDEX                            <
>     VSB    - VISIBILITY IN MILES                         <
>     HX     - HEAT INDEX                                  <
>     TC     - TEMPERATURE IN CELSIUS                      <
>     VRB    - VARIABLE WIND DIRECTION                     <
>                                                          <
>>>>>>>>>>>>>>>>>>>>>>>>>>>> KEY <<<<<<<<<<<<<<<<<<<<<<<<<<<





USA.gov is the U.S. government's official web portal to all federal, state and local government web resources and services.